Regional Weather Roundup
Issued by NWS

Home | Current Version | Previous Version | Graphics & Text | Print | Product List | Glossary On
Versions: 1 2 3 4 5 6 7 8 9 10 11 12 13 14 15 16 17 18 19 20 21 22 23 24 25 26 27 28 29 30 31 32 33 34 35 36 37 38 39 40 41 42 43 44 45 46 47 48 49 50
000
ASUS45 KBOU 230610
RWRCO

WEATHER ROUNDUP FOR COLORADO
NATIONAL WEATHER SERVICE DENVER/BOULDER CO
1200 AM MDT MON APR 23 2018

NOTE: "FAIR" INDICATES FEW OR NO CLOUDS BELOW 12000 FEET WITH NO
SIGNIFICANT WEATHER AND/OR OBSTRUCTIONS TO VISIBILITY.

COZ001>005-013-030-031-230700-
...NORTHWEST COLORADO...

CITY           SKY/WX    TMP DP  RH WIND       PRES   REMARKS
CRAIG          FAIR      42  35  76 CALM      30.08S
HAYDEN         FAIR      46  31  55 E13       30.11S
MEEKER         FAIR      44  33  65 VRB6      30.10S
RANGELY        FAIR      51  38  61 E10       30.03S
RABBIT EARS PA FAIR      39  25  56 CALM      30.28S
STEAMBOAT SPGS FAIR      43  29  58 CALM      30.12R
WALDEN         FAIR      32  25  74 SE7       30.19S WCI  26
$$

COZ006>008-011-230700-
...WEST CENTRAL VALLEYS...

CITY           SKY/WX    TMP DP  RH WIND       PRES   REMARKS
GRAND JUNCTION FAIR      54  28  36 E6        30.01S
MONTROSE       FAIR      50  33  52 SE9       30.09S
EAGLE          FAIR      43  33  68 CALM      30.16R
RIFLE          MOCLDY    50  38  63 SE6       30.07R
DELTA          FAIR      54  32  43 E5        30.06S
NUCLA          FAIR      52  27  37 E12       30.11S
$$

COZ017>023-064>068-230700-
...SOUTHWEST COLORADO...

CITY           SKY/WX    TMP DP  RH WIND       PRES   REMARKS
DURANGO        FAIR      44  24  45 N3        30.12S
CORTEZ         FAIR      43  23  45 N3        30.10R
PAGOSA SPRINGS FAIR      38  16  40 CALM      30.18F
TELLURIDE      FAIR      42  28  58 SE7       30.27R
WOLF CREEK PAS FAIR      34  12  40 SW6       30.42S WCI  29
$$

COZ009-010-012-014-032>034-037-058>063-230700-
...CENTRAL COLORADO...

CITY           SKY/WX    TMP DP  RH WIND       PRES   REMARKS
ASPEN          FAIR      41  28  60 S6        30.17S
BUENA VISTA    CLOUDY    45  37  76 NW3       30.24F
COPPER MTN     NOT AVBL
BERTHOUD PASS    N/A     28  18  64 SW9       30.37F WCI  20
COTTONWOOD PAS CLOUDY    41  37  87 W8        30.29F
GUNNISON       MOCLDY    45  31  58 N3        30.20R
GRANBY         FAIR      35  28  78 NE7       30.21R WCI  29
KREMMLING      FAIR      43  34  70 CALM      30.18R
LEADVILLE      MOCLDY    32  31  96 CALM      30.28F
MONARCH PASS   FAIR      30  28  93 E5        30.47F WCI  25
SALIDA         CLOUDY    48  36  64 S9        30.30R
SUNLIGHT       FAIR      36  23  60 SW3       30.33S
WILKERSON PASS FAIR      32  28  86 SW5       30.37S WCI  27
$$

COZ069>075-230700-
...SAN LUIS VALLEY/SANGRE DE CRISTO MOUNTAINS...

CITY           SKY/WX    TMP DP  RH WIND       PRES   REMARKS
ALAMOSA        FAIR      45  29  53 SE8       30.16S
DEL NORTE      FAIR      41  25  52 NW3       30.21R
LA VETA PASS   FAIR      36  27  69 N7        30.41S
SAGUACHE       NOT AVBL
$$

COZ035-036-038>040-230700-
...NORTHERN COLORADO FRONT RANGE...

CITY           SKY/WX    TMP DP  RH WIND       PRES   REMARKS
DENVER INTL AP FAIR      44  36  73 S7        30.11F
AURORA         NOT AVBL
FRONT RANGE AP FAIR      47  40  77 SE9G17    30.12F
ERIE MUNI ARPT FAIR      41  37  83 S3        30.16S
BOULDER MUN AP FAIR      46  36  66 CALM      30.11S
CENTENNIAL     FAIR      47  38  71 S12       30.13F
BROOMFIELD     FAIR      52  32  46 NW3       30.12F
FORT COLLINS   FAIR      44  37  76 E9        30.12F
LONGMONT       FAIR      46  37  71 N3        30.13S
$$

COZ041-046-047-076>085-087-088-230700-
...PIKES PEAK/PALMER DIVIDE AND SOUTHERN FOOTHILLS...

CITY           SKY/WX    TMP DP  RH WIND       PRES   REMARKS
COLO. SPRINGS  MOCLDY    42  35  76 S5        30.22S
A. F. ACADEMY  CLOUDY    42  35  75 SE7       30.21S
SCHRIEVER AFB  NOT AVBL
CHEYENNE MTN   MOCLDY    40  35  80 S7        30.17S
ELLICOTT         N/A    N/A N/A N/A S8        30.19F
FALCON         FAIR      37  35  90 CALM      30.23S
FORT CARSON    CLOUDY    43  36  76 S5        30.20S
LIMON          FAIR      36  33  89 S6        30.19S
MONUMENT HILL  CLOUDY    37  34  87 S12       30.21S
CANON CITY     FAIR      45  37  76 S6        30.19F
WALSENBURG     NOT AVBL
TRINIDAD       FAIR      41  30  65 NW8       30.17S
$$

COZ042>045-048>051-090-091-230700-
...NORTHEAST COLORADO...

CITY           SKY/WX    TMP DP  RH WIND       PRES   REMARKS
GREELEY ARPT   FAIR      42  38  85 E5        30.12F
AKRON          FAIR      40  36  86 S12       30.16S
BURLINGTON     FAIR      37  34  89 S12       30.19S
WRAY           FAIR      43  34  70 S5        30.18S
YUMA           FAIR      34  28  80 S7        30.17S WCI  28
STERLING       NOT AVBL
HOLYOKE        FAIR      37  34  87 S5        30.18S
FORT MORGAN    FAIR      43  36  77 SE10      30.14F
$$

COZ086-089-092>099-230700-
...SOUTHEAST COLORADO...

CITY           SKY/WX    TMP DP  RH WIND       PRES   REMARKS
PUEBLO         FAIR      43  33  68 N5        30.18S
LA JUNTA       FAIR      43  36  76 E8        30.17S
LAMAR          FAIR      42  35  76 MISG      30.17S
SPRINGFIELD      N/A     36  33  89 CALM      30.18S
$$



USA.gov is the U.S. government's official web portal to all federal, state and local government web resources and services.